DateTimeUTC,F1_A11,F1_S11,BsB_S11,BsG_S11,BsR_S11,BbsB_S11,BbsG_S11,BbsR_S11,BaB_A11,BaG_A11,BaR_A11,Tu_S11,T_S11,Uu_S11,U_S11,P_S11,T1_A11
2021-04-11T12:00:00Z,00000200,21000000,,,,,,,0000.85,0000.94,0000.69,17.1,24.1,00.9,00.6,0667.9,31.0
2021-04-11T12:01:00Z,00000200,21000000,,,,,,,0000.89,0000.58,0000.53,17.1,24.1,01.0,00.7,0667.9,31.0
2021-04-11T12:02:00Z,00000200,21000000,,,,,,,0000.66,0000.58,0000.48,17.1,24.1,01.2,00.8,0667.9,31.0
2021-04-11T12:03:00Z,00000200,61000000,,,,,,,0001.12,0000.90,0000.38,17.1,24.1,01.2,00.8,0667.9,31.0
2021-04-11T12:04:00Z,00000200,41000000,0000.03,-000.32,0000.11,0000.46,0000.05,0000.25,0000.04,0000.40,0000.31,17.3,24.0,02.0,01.3,0668.8,31.0
2021-04-11T12:05:00Z,00000200,01000000,0000.23,-000.13,0000.04,0000.23,-000.08,0000.23,0000.05,-000.59,-000.08,17.4,24.0,02.1,01.4,0668.9,31.0
2021-04-11T12:06:00Z,00000200,01000000,-000.05,-000.14,0000.09,0000.49,-000.01,0000.08,-000.33,0000.22,-000.26,17.4,24.0,01.9,01.3,0668.9,31.0
2021-04-11T12:07:00Z,00000200,01000000,0000.09,0000.02,-000.20,0000.01,-000.06,-000.02,0000.11,0000.20,-000.10,17.4,24.0,01.9,01.3,0668.9,31.0
2021-04-11T12:08:00Z,00000200,00000000,0000.20,0000.14,0000.08,-000.14,-000.17,0000.07,0000.12,-000.09,0000.04,17.4,24.0,01.9,01.3,0668.9,31.0
2021-04-11T12:09:00Z,00000200,01000000,-000.35,0000.24,-000.02,0000.01,-000.01,0000.18,-000.15,0000.02,0000.28,17.4,24.0,01.9,01.3,0669.0,31.0
2021-04-11T12:10:00Z,00000200,01000000,-000.27,-000.17,-000.00,0000.48,-000.06,0000.38,0000.06,-000.16,-000.01,17.4,24.0,01.9,01.2,0668.9,31.0
2021-04-11T12:11:00Z,00000200,01000000,0000.57,-000.30,0000.18,0000.33,-000.11,0000.38,-000.21,0000.23,-000.24,17.5,24.0,01.8,01.2,0668.9,31.0
2021-04-11T12:12:00Z,00000200,01000000,-000.10,-000.15,0000.09,0000.07,0000.04,0000.17,0000.01,-000.57,-000.09,17.5,24.0,01.7,01.1,0668.9,31.0
2021-04-11T12:13:00Z,00000200,01000000,0000.06,0000.09,0000.22,0000.11,-000.06,0000.33,-000.13,0000.34,-000.18,17.5,24.0,01.7,01.1,0669.0,31.0
2021-04-11T12:14:00Z,00000200,01000000,-000.35,-000.30,-000.00,-000.08,-000.25,0000.09,0000.19,0000.05,0000.31,17.5,24.0,01.8,01.2,0669.0,31.0
2021-04-11T12:15:00Z,00000200,01000000,-000.41,0000.01,-000.24,-000.04,-000.02,0000.20,0000.12,0000.20,0000.12,17.5,24.1,01.6,01.1,0669.0,31.0
2021-04-11T12:16:00Z,00000200,01000000,-000.12,0000.02,-000.06,-000.39,-000.18,0000.30,0000.03,0000.06,-000.05,17.6,24.1,01.7,01.2,0669.0,31.0
2021-04-11T12:17:00Z,00000200,01000000,0000.17,-000.08,0000.18,0000.05,-000.34,0000.36,0000.25,0000.09,0000.36,17.6,24.1,01.7,01.1,0669.0,31.0
2021-04-11T12:18:00Z,00000200,01000000,-000.07,-000.02,-000.26,0000.15,-000.13,0000.04,-000.40,-000.28,-000.76,17.6,24.1,01.7,01.1,0669.0,31.0
2021-04-11T12:19:00Z,00000200,01000000,0000.23,0000.13,0000.11,0000.04,-000.08,0000.07,-000.03,0000.13,0000.43,17.6,24.1,01.6,01.1,0669.0,31.0
2021-04-11T12:20:00Z,00000200,01000000,-000.07,0000.13,-000.22,-000.19,-000.19,0000.11,0000.67,0000.35,0000.58,17.7,24.1,01.7,01.1,0669.1,31.0
2021-04-11T12:21:00Z,00000200,01000000,0000.06,-000.15,0000.34,0000.15,-000.02,0000.11,0000.46,0000.26,-000.04,17.7,24.1,01.8,01.2,0669.1,31.0
2021-04-11T12:22:00Z,00000200,01000000,-000.39,0000.12,-000.08,0000.29,-000.01,0000.00,-000.01,0000.17,0000.23,17.7,24.2,01.7,01.2,0669.1,31.0
2021-04-11T12:23:00Z,00000200,01000000,-000.50,0000.22,0000.15,0000.55,0000.02,-000.07,-000.28,-000.13,-000.38,17.7,24.2,01.7,01.2,0669.1,31.0
2021-04-11T12:24:00Z,00000200,01000000,-000.43,-000.11,-000.09,-000.07,-000.04,0000.12,-000.17,-000.33,0000.08,17.7,24.2,01.7,01.1,0669.1,31.0
2021-04-11T12:25:00Z,00000200,01000000,0000.04,-000.01,-000.06,0000.41,-000.14,0000.41,0000.05,0000.04,-000.21,17.7,24.2,01.7,01.1,0669.1,31.0
2021-04-11T12:26:00Z,00000200,01000000,-000.24,0000.05,-000.10,0000.11,-000.15,0000.29,0000.03,-000.03,0000.25,17.8,24.2,01.6,01.1,0669.2,31.0
2021-04-11T12:27:00Z,00000200,01000000,0000.18,0000.01,0000.05,0000.16,0000.16,0000.05,-000.12,0000.18,-000.11,17.8,24.3,01.5,01.0,0669.2,31.0
2021-04-11T12:28:00Z,00000200,01000000,-000.04,0000.10,0000.06,0000.46,-000.11,0000.08,-000.21,-000.17,0000.08,17.8,24.3,01.5,01.0,0669.2,31.0
2021-04-11T12:29:00Z,00000200,01000000,-000.68,0000.11,-000.08,-000.11,-000.04,0000.30,0000.18,0000.02,0000.06,17.8,24.3,01.4,00.9,0669.2,31.1
2021-04-11T12:30:00Z,00000200,01000000,0000.01,-000.03,0000.03,0000.10,-000.02,0000.52,0000.29,0000.46,0000.31,17.9,24.3,01.6,01.0,0669.2,31.1
2021-04-11T12:31:00Z,00000200,01000000,0000.03,-000.03,-000.20,0000.51,0000.24,0000.14,0000.08,0000.18,-000.18,17.9,24.3,01.6,01.1,0669.2,31.0
2021-04-11T12:32:00Z,00000200,01000000,-000.39,0000.34,0000.05,0000.24,0000.20,0000.21,0000.17,-000.11,0000.11,17.9,24.3,01.6,01.1,0669.2,31.0
2021-04-11T12:33:00Z,00000200,01000000,-000.01,-000.02,-000.08,0000.52,-000.00,0000.03,0000.32,0000.15,0000.46,17.9,24.3,01.6,01.1,0669.1,31.0
2021-04-11T12:34:00Z,00000200,01000000,-000.26,-000.01,0000.03,0000.03,0000.00,0000.30,0000.73,0000.62,0000.32,18.0,24.3,01.8,01.2,0669.1,31.0
2021-04-11T12:35:00Z,00000200,01000000,-000.42,-000.21,-000.08,0000.25,0000.04,0000.36,0000.41,-000.11,-000.51,18.0,24.3,01.8,01.2,0669.1,31.1
2021-04-11T12:36:00Z,00000200,01000000,0000.11,0000.35,0000.18,-000.01,-000.19,0000.36,-000.59,-000.07,0000.08,18.0,24.4,01.8,01.2,0669.1,31.1
2021-04-11T12:37:00Z,00000200,01000000,0000.42,0000.10,-000.19,-000.13,-000.16,-000.15,-000.08,-000.10,0000.04,18.0,24.4,01.8,01.2,0669.1,31.0
2021-04-11T12:38:00Z,00000200,01000000,0000.28,0000.21,-000.09,0000.40,-000.01,0000.19,0000.19,0000.24,0000.32,18.0,24.4,01.7,01.2,0669.1,31.1
2021-04-11T12:39:00Z,00000200,01000000,0000.59,-000.22,-000.01,-000.34,-000.03,0000.15,0000.45,0000.34,0000.28,18.0,24.4,01.7,01.2,0669.1,31.1
2021-04-11T12:40:00Z,00000200,01000000,-000.01,-000.12,-000.09,0000.18,-000.06,0000.11,0000.64,0000.78,0000.14,18.0,24.4,01.8,01.2,0669.2,31.1
2021-04-11T12:41:00Z,00000200,01000000,-000.06,-000.22,0000.29,-000.51,-000.01,0000.14,-000.27,0000.02,0000.38,18.1,24.4,01.9,01.3,0669.2,31.1
2021-04-11T12:42:00Z,00000200,00000000,-000.49,0000.09,0000.15,0000.36,0000.01,0000.19,0000.79,0000.32,-000.07,18.1,24.4,02.0,01.3,0669.1,31.1
2021-04-11T12:43:00Z,00000200,00000000,-000.03,-000.11,-000.15,0000.19,0000.03,-000.12,0000.17,0000.45,0000.20,18.1,24.4,02.1,01.4,0669.1,31.1
2021-04-11T12:44:00Z,00000200,01000000,0000.22,-000.10,0000.08,-000.04,-000.12,0000.04,0000.24,-000.11,0000.32,18.1,24.5,02.1,01.4,0669.2,31.1
2021-04-11T12:45:00Z,00000200,00000000,0000.10,-000.12,-000.20,-000.28,-000.03,0000.08,0000.36,0000.54,0000.38,18.2,24.5,02.1,01.4,0669.2,31.1
2021-04-11T12:46:00Z,00000200,00000000,0000.42,0000.06,0000.04,0000.15,-000.03,0000.06,0000.04,-000.04,0000.02,18.2,24.5,02.1,01.5,0669.2,31.1
2021-04-11T12:47:00Z,00000200,00000000,-000.22,-000.22,0000.29,0000.15,-000.01,-000.05,0000.78,0000.53,0000.19,18.2,24.5,02.2,01.5,0669.2,31.1
2021-04-11T12:48:00Z,00000200,00000000,0000.50,-000.14,0000.20,0000.01,0000.04,0000.26,0000.65,0000.99,0000.67,18.2,24.5,02.4,01.7,0669.2,31.1
2021-04-11T12:49:00Z,00000200,00000000,0001.81,0002.38,0002.14,0001.00,0000.50,0000.84,0010.11,0009.00,0007.75,18.2,24.5,04.4,03.0,0669.2,31.1
2021-04-11T12:50:00Z,00000200,00000000,-000.07,0000.08,-000.31,-000.04,-000.05,0000.01,-003.49,-002.90,-002.05,18.2,24.5,03.3,02.3,0669.2,31.0
2021-04-11T12:51:00Z,00000200,00000000,0000.32,0000.23,-000.06,0000.05,-000.10,0000.44,-000.34,-000.38,-000.06,18.2,24.5,02.8,01.9,0669.2,31.0
2021-04-11T12:52:00Z,00000200,00000000,0000.08,-000.15,-000.08,-000.33,-000.04,0000.18,-000.05,-000.20,-000.27,18.3,24.6,02.8,01.9,0669.2,31.1
2021-04-11T12:53:00Z,00000200,00000000,0000.12,-000.21,0000.01,0000.29,-000.12,0000.16,0000.31,0000.58,0000.42,18.3,24.6,02.7,01.8,0669.2,31.1
2021-04-11T12:54:00Z,00000200,00000000,-000.15,-000.06,0000.06,-000.18,-000.17,0000.14,0000.22,0000.44,0000.13,18.3,24.6,02.7,01.9,0669.2,31.1
2021-04-11T12:55:00Z,00000200,00000000,-000.01,-000.05,-000.00,-000.13,0000.16,-000.18,0000.42,0000.08,0000.04,18.3,24.6,02.9,02.0,0669.2,31.1
2021-04-11T12:56:00Z,00000200,00000000,0000.11,0000.15,0000.14,-000.01,-000.03,0000.32,0000.80,0000.88,0000.75,18.3,24.6,03.0,02.0,0669.2,31.1
2021-04-11T12:57:00Z,00000200,40000000,,,,,,,-001.46,-001.38,-000.79,18.4,24.6,02.8,01.9,0669.2,31.1
2021-04-11T12:58:00Z,00000200,60000000,,,,,,,0001.47,0001.55,0000.65,18.2,24.7,02.7,01.8,0668.2,31.1
2021-04-11T12:59:00Z,00000200,20000000,,,,,,,0001.74,0001.47,0001.24,18.2,24.8,03.0,02.0,0668.2,31.1
